User: anonymous   Login
Location: Unspecified
(0.0000°N, 0.0000°E)
Time: 03:38:47
(UTC+00:00)
Language:

USA 238 - Orbit

View from above orbital plane
View from above orbital plane
View from above satellite
View from above satellite

Ground track
Ground track

The orbit data is extracted from the following two-line orbital elements,

1 38758U 12048A   17134.84308878 0.00000000  00000-0  00000-0 0    01
2 38758  63.4392  26.1800 0024000  12.6237 347.3763 13.40861613    00
Epoch (UTC): 14 May 2017 20:14:02
Eccentricity: 0.0024000
inclination: 63.4392°
perigee height: 1088 km
apogee height: 1124 km
right ascension of ascending node: 26.1800°
argument of perigee: 12.6237°
revolutions per day: 13.40861613
mean anomaly at epoch: 347.3763°
orbit number at epoch: 0

The dashed part of the orbit path shows where the satellite is in the earth's shadow,  

DLR